This is the latest recevied weather packets stored in our database for station/object K5NAN. If no packets are shown the sender has not sent any weather packets the latest 10 day(s).
| Time | Temp. | Humidity | Pressure | Rain* | Wind** | Luminosity | Snow |
|---|---|---|---|---|---|---|---|
| 1777190011 | 22.22° C | 90% | 1004.8 hPa | 0 mm | - | 0 W/m² | - |
| 1777189709 | 22.22° C | 89% | 1004.9 hPa | 0 mm | - | 0 W/m² | - |
| 1777189408 | 22.22° C | 88% | 1005 hPa | 0 mm | - | 0 W/m² | - |
| 1777189104 | 22.78° C | 87% | 1004.7 hPa | 0 mm | - | 0 W/m² | - |
| 1777188801 | 23.33° C | 85% | 1004.7 hPa | 0 mm | - | 0 W/m² | - |
| 1777188497 | 23.33° C | 84% | 1005.1 hPa | 0 mm | - | 0 W/m² | - |
| 1777188196 | 24.44° C | 81% | 1004.9 hPa | 0 mm | - | 0 W/m² | - |
| 1777187893 | 25° C | 78% | 1004.9 hPa | 0 mm | - | 0 W/m² | - |
| 1777187588 | 25° C | 77% | 1005 hPa | 0 mm | - | 0 W/m² | - |
| 1777187283 | 25.56° C | 76% | 1005 hPa | 0 mm | - | 0 W/m² | - |
| 1777186979 | 25.56° C | 75% | 1005.1 hPa | 0 mm | - | 0 W/m² | - |
| 1777186675 | 25.56° C | 75% | 1004.8 hPa | 0 mm | - | 0 W/m² | - |
| 1777186370 | 25.56° C | 76% | 1004.4 hPa | 0 mm | - | 0 W/m² | - |
| 1777186069 | 25.56° C | 74% | 1004.8 hPa | 0 mm | - | 0 W/m² | - |
| 1777185765 | 25.56° C | 75% | 1004.7 hPa | 0 mm | - | 0 W/m² | - |
| 1777185463 | 25.56° C | 74% | 1004.8 hPa | 0 mm | - | 0 W/m² | - |
| 1777185158 | 25.56° C | 74% | 1005 hPa | 0 mm | - | 0 W/m² | - |
| 1777184853 | 26.11° C | 73% | 1005.3 hPa | 0 mm | - | 0 W/m² | - |
| 1777184548 | 26.11° C | 73% | 1005.3 hPa | 0 mm | - | 0 W/m² | - |
| 1777184243 | 26.11° C | 73% | 1005.2 hPa | 0 mm | - | 0 W/m² | - |
| 1777183939 | 25.56° C | 74% | 1005.2 hPa | 0 mm | - | 0 W/m² | - |
| 1777183635 | 25.56° C | 75% | 1005.6 hPa | 0 mm | - | 0 W/m² | - |
| 1777183330 | 25.56° C | 75% | 1005.6 hPa | 0 mm | - | 0 W/m² | - |
| 1777183025 | 25.56° C | 75% | 1005.6 hPa | 0 mm | - | 0 W/m² | - |
| 1777182723 | 25.56° C | 75% | 1005.8 hPa | 0 mm | - | 0 W/m² | - |
* Rain latest hour (hover to see other rain measurements)
** Current wind speed in m/s (hover to see current wind gust speed)